Weather History for KHFD - January, 2013

Change the Weather History Date:

Wednesday, January 9, 2013

  Actual Average Record
Temperature  
Mean Temperature 39 °F -  
Max Temperature 57 °F 32 °F 64 °F (1937)
Min Temperature 21 °F 14 °F -9 °F (1968)
Degree Days  
Heating Degree Days 26    
Moisture  
Dew Point 23 °F    
Average Humidity 85    
Maximum Humidity 100    
Minimum Humidity 36    
Precipitation  
Precipitation 0.00 in - - ()
Sea Level Pressure  
Sea Level Pressure 30.32 in    
Wind  
Wind Speed 1 mph (SSW)    
Max Wind Speed 8 mph    
Max Gust Speed 16 mph    
Visibility 4 miles    
Events Fog    
Averages and records for this station are not official NWS values.
T = Trace of Precipitation, MM = Missing Value Source: NWS Daily Summary

Daily Weather History Graph

Daily Weather History Graph

Search for Another Location

Airport or City:

Trip Planner

Search our weather history database for the weather conditions in past years. The results will help you decide how hot, cold, wet, or windy it might be!

Date:

Astronomy

Jan. 09, 2013 Rise Set
Actual Time 7:17 AM EST 4:38 PM EST
Civil Twilight 6:46 AM EST 5:09 PM EST
Nautical Twilight 6:11 AM EST 5:44 PM EST
Astronomical Twilight 5:38 AM EST 6:17 PM EST
Moon 4:53 AM EST (1/9) 2:37 PM EST (1/9)
Length of Visible Light 10h 23m
Length of Day
9h 21m
Waning Crescent, 6% of the Moon is Illuminated
Jan 9
Waning Crescent
Jan 11
New
Jan 18
First Quarter
Jan 26
Full
Feb 3
Last Quarter

Hourly Weather History & Observations

Time (EST) Temp. Dew Point Humidity Pressure Visibility Wind Dir Wind Speed Gust Speed Precip Events Conditions
12:53 AM 27.0 °F 25.0 °F 92% 30.37 in 3.0 mi Calm Calm - N/A   Clear
1:31 AM 26.6 °F 24.8 °F 93% 30.37 in 2.5 mi Calm Calm - N/A   Clear
1:48 AM 26.6 °F 24.8 °F 93% 30.37 in 3.0 mi Calm Calm - N/A   Clear
1:53 AM 25.0 °F 24.1 °F 96% 30.38 in 3.0 mi Calm Calm - N/A   Clear
2:09 AM 26.6 °F 23.0 °F 86% 30.37 in 2.5 mi Calm Calm - N/A   Clear
2:53 AM 24.1 °F 23.0 °F 96% 30.38 in 0.2 mi Calm Calm - N/A Fog Light Freezing Fog
3:13 AM 24.8 °F 23.0 °F 93% 30.38 in 1.8 mi Calm Calm - N/A   Partly Cloudy
3:20 AM 24.8 °F 23.0 °F 93% 30.38 in 2.5 mi Calm Calm - N/A   Partly Cloudy
3:32 AM 24.8 °F 21.2 °F 86% 30.38 in 0.8 mi Calm Calm - N/A   Clear
3:39 AM 24.8 °F 23.0 °F 93% 30.39 in 0.5 mi Calm Calm - N/A Fog Light Freezing Fog
3:45 AM 24.8 °F 24.8 °F 100% 30.39 in 1.2 mi Calm Calm - N/A   Partly Cloudy
3:53 AM 23.0 °F 21.0 °F 92% 30.38 in 2.5 mi Calm Calm - N/A   Partly Cloudy
3:56 AM 21.2 °F 19.4 °F 93% 30.38 in 1.0 mi Calm Calm - N/A   Mist
4:04 AM 23.0 °F 21.2 °F 93% 30.37 in 0.2 mi Calm Calm - N/A Fog Light Freezing Fog
4:20 AM 23.0 °F 21.2 °F 93% 30.37 in 1.0 mi Calm Calm - N/A   Mist
4:27 AM 23.0 °F 21.2 °F 93% 30.37 in 1.8 mi Calm Calm - N/A   Partly Cloudy
4:34 AM 24.8 °F 21.2 °F 86% 30.37 in 2.5 mi Calm Calm - N/A   Partly Cloudy
4:45 AM 24.8 °F 21.2 °F 86% 30.37 in 3.0 mi Calm Calm - N/A   Scattered Clouds
4:53 AM 24.1 °F 21.9 °F 91% 30.37 in 3.0 mi Calm Calm - N/A   Mostly Cloudy
5:03 AM 23.0 °F 21.2 °F 93% 30.37 in 2.5 mi Calm Calm - N/A   Scattered Clouds
5:11 AM 21.2 °F 19.4 °F 93% 30.36 in 1.5 mi Calm Calm - N/A   Mostly Cloudy
5:21 AM 23.0 °F 21.2 °F 93% 30.37 in 0.2 mi Calm Calm - N/A Fog Light Freezing Fog
5:32 AM 24.8 °F 21.2 °F 86% 30.37 in 1.5 mi Calm Calm - N/A   Scattered Clouds
5:40 AM 23.0 °F 21.2 °F 93% 30.38 in 2.0 mi Calm Calm - N/A   Partly Cloudy
5:53 AM 24.1 °F 21.9 °F 91% 30.38 in 4.0 mi Calm Calm - N/A   Partly Cloudy
6:22 AM 21.2 °F 19.4 °F 93% 30.38 in 2.5 mi Calm Calm - N/A   Clear
6:48 AM 21.2 °F 21.2 °F 100% 30.39 in 5.0 mi Calm Calm - N/A   Clear
6:53 AM 23.0 °F 21.0 °F 92% 30.39 in 5.0 mi Calm Calm - N/A   Clear
7:53 AM 28.0 °F 23.0 °F 81% 30.40 in 5.0 mi Calm Calm - N/A   Haze
8:53 AM 36.0 °F 27.0 °F 70% 30.38 in 5.0 mi Calm Calm - N/A   Haze
9:53 AM 34.0 °F 28.0 °F 79% 30.38 in 3.0 mi Calm Calm - N/A   Haze
10:53 AM 37.9 °F 28.9 °F 70% 30.35 in 3.0 mi Calm Calm - N/A   Haze
11:53 AM 43.0 °F 28.9 °F 58% 30.26 in 4.0 mi Calm Calm - N/A   Haze
1:53 PM 53.1 °F 28.9 °F 40% 30.23 in 6.0 mi Calm Calm - N/A   Haze
2:53 PM 57.0 °F 30.0 °F 36% 30.17 in 6.0 mi South 8.1 mph - N/A   Haze
3:53 PM 52.0 °F 33.1 °F 49% 30.09 in 6.0 mi South 6.9 mph - N/A   Haze
5:53 PM - - N/A% 30.09 in 8.0 mi SSW 6.9 mph - N/A   Mostly Cloudy
6:53 PM - - N/A% 30.10 in 8.0 mi SW 8.1 mph - N/A   Clear
7:53 PM - - N/A% 30.10 in 9.0 mi SW 6.9 mph 16.1 mph N/A   Clear
8:53 PM - - N/A% 30.10 in 10.0 mi SW 8.1 mph - N/A   Clear
9:53 PM - - N/A% 30.12 in 9.0 mi South 6.9 mph - N/A   Clear
10:53 PM - - N/A% 30.13 in 10.0 mi WSW 4.6 mph - N/A   Clear
11:53 PM - - N/A% 30.15 in 7.0 mi Calm Calm - N/A   Clear